| time (UTC) | temp C | wind direction | speed KPH | gust KPH | rain 1hr cm | rain 24hr cm | rain mn cm | humidity % | barometer mb |
| 20260505041519 | 23 | 191 | 1.6 | 4.8 | 0.00 | 0.00 | 0.00 | 65 | 1008.7 |
| 20260505040023 | 23 | 216 | 1.6 | 4.8 | 0.00 | 0.00 | 0.00 | 65 | 1009.0 |
| 20260505034519 | 23 | 198 | 1.6 | 6.4 | 0.00 | 0.00 | 0.00 | 65 | 1009.0 |
| 20260505033018 | 23 | 170 | 3.2 | 8.0 | 0.00 | 0.00 | 0.00 | 64 | 1009.2 |
| 20260505031517 | 23 | 177 | 1.6 | 6.4 | 0.00 | 0.00 | 0.00 | 64 | 1009.1 |
| 20260505030016 | 23 | 182 | 1.6 | 4.8 | 0.00 | 0.00 | 0.00 | 64 | 1009.0 |
| 20260505024518 | 23 | 169 | 1.6 | 6.4 | 0.00 | 0.00 | 0.00 | 63 | 1008.9 |
| 20260505023017 | 23 | 174 | 1.6 | 4.8 | 0.00 | 0.00 | 0.00 | 63 | 1009.0 |
| 20260505021514 | 23 | 167 | 1.6 | 8.0 | 0.00 | 0.00 | 0.00 | 63 | 1008.9 |
| 20260505020015 | 23 | 166 | 1.6 | 6.4 | 0.00 | 0.00 | 0.00 | 63 | 1008.7 |
| 20260505014529 | 23 | 161 | 1.6 | 4.8 | 0.00 | 0.00 | 0.00 | 63 | 1008.6 |
| 20260505013014 | 23 | 161 | 0.0 | 4.8 | 0.00 | 0.00 | 0.00 | 63 | 1008.5 |
| 20260505011513 | 23 | 135 | 0.0 | 3.2 | 0.00 | 0.00 | 0.00 | 62 | 1008.5 |
| 20260505010013 | 24 | 150 | 1.6 | 3.2 | 0.00 | 0.00 | 0.00 | 61 | 1008.5 |
| 20260505004513 | 24 | 159 | 1.6 | 8.0 | 0.00 | 0.00 | 0.00 | 60 | 1008.3 |
| 20260505003010 | 25 | 158 | 1.6 | 8.0 | 0.00 | 0.00 | 0.00 | 60 | 1008.3 |
| 20260505001510 | 25 | 192 | 1.6 | 4.8 | 0.00 | 0.00 | 0.00 | 59 | 1008.4 |
| 20260505000011 | 25 | 192 | 1.6 | 4.8 | 0.00 | 0.00 | 0.00 | 59 | 1008.6 |
| 20260504234508 | 25 | 177 | 3.2 | 8.0 | 0.00 | 0.00 | 0.00 | 58 | 1008.4 |
| 20260504233006 | 25 | 170 | 1.6 | 6.4 | 0.00 | 0.00 | 0.00 | 58 | 1008.5 |
| 20260504231505 | 25 | 180 | 1.6 | 6.4 | 0.00 | 0.00 | 0.00 | 58 | 1008.7 |
| 20260504230006 | 26 | 178 | 1.6 | 8.0 | 0.00 | 0.00 | 0.00 | 57 | 1008.8 |
| 20260504224508 | 26 | 180 | 1.6 | 6.4 | 0.00 | 0.00 | 0.00 | 56 | 1008.9 |
| 20260504223001 | 26 | 175 | 1.6 | 6.4 | 0.00 | 0.00 | 0.00 | 54 | 1009.0 |
| 20260504221603 | 26 | 190 | 1.6 | 6.4 | 0.00 | 0.00 | 0.00 | 54 | 1009.3 |
| 20260504221500 | 26 | 190 | 1.6 | 6.4 | 0.00 | 0.00 | 0.00 | 54 | 1009.3 |
| 20260504214559 | 27 | 167 | 3.2 | 8.0 | 0.00 | 0.00 | 0.00 | 53 | 1009.5 |
| 20260504213106 | 27 | 167 | 3.2 | 9.7 | 0.00 | 0.00 | 0.00 | 52 | 1009.5 |
| 20260504211644 | 27 | 180 | 0.0 | 4.8 | 0.00 | 0.00 | 0.00 | 53 | 1009.7 |
| 20260504210055 | 27 | 180 | 1.6 | 6.4 | 0.00 | 0.00 | 0.00 | 51 | 1009.9 |
| 20260504204552 | 27 | 167 | 3.2 | 6.4 | 0.00 | 0.00 | 0.00 | 52 | 1010.3 |
| 20260504203050 | 27 | 161 | 1.6 | 4.8 | 0.00 | 0.00 | 0.00 | 52 | 1010.4 |
| 20260504201547 | 27 | 261 | 1.6 | 8.0 | 0.00 | 0.00 | 0.00 | 52 | 1010.6 |
| 20260504200046 | 27 | 172 | 3.2 | 8.0 | 0.00 | 0.00 | 0.00 | 51 | 1010.9 |
| 20260504194549 | 27 | 172 | 3.2 | 6.4 | 0.00 | 0.00 | 0.00 | 51 | 1011.1 |
| 20260504193044 | 27 | 177 | 1.6 | 8.0 | 0.00 | 0.00 | 0.00 | 51 | 1011.3 |
| 20260504191544 | 27 | 241 | 1.6 | 4.8 | 0.00 | 0.00 | 0.00 | 53 | 1011.7 |
| 20260504190043 | 27 | 175 | 1.6 | 4.8 | 0.00 | 0.00 | 0.00 | 54 | 1011.9 |
| 20260504184545 | 26 | 209 | 1.6 | 6.4 | 0.00 | 0.00 | 0.00 | 53 | 1011.9 |
| 20260504183032 | 26 | 174 | 1.6 | 9.7 | 0.00 | 0.00 | 0.00 | 53 | 1012.0 |
| 20260504181535 | 26 | 114 | 1.6 | 4.8 | 0.00 | 0.00 | 0.00 | 53 | 1012.2 |
| 20260504180032 | 27 | 167 | 4.8 | 6.4 | 0.00 | 0.00 | 0.00 | 50 | 1012.4 |
| 20260504174525 | 26 | 175 | 1.6 | 9.7 | 0.00 | 0.00 | 0.00 | 52 | 1012.6 |
| 20260504173053 | 26 | 177 | 0.0 | 4.8 | 0.00 | 0.00 | 0.00 | 54 | 1012.9 |
| 20260504171546 | 26 | 165 | 1.6 | 6.4 | 0.00 | 0.00 | 0.00 | 54 | 1013.1 |
| 20260504081536 | 15 | 186 | 0.0 | 0.0 | 0.00 | 0.00 | 0.00 | 71 | 1014.6 |
| 20260504050006 | 17 | 186 | 0.0 | 0.0 | 0.00 | 0.00 | 0.00 | 61 | 1016.4 |
| 20260504044509 | 17 | 186 | 0.0 | 0.0 | 0.00 | 0.00 | 0.00 | 60 | 1016.6 |